EN

Hourly Weather Batina

Today, 7 March, Sunday

Time Temperature Precipitation Wind Pressure Humidity
00:00 +10°C° 0 mm 1 mps 672 mmHg 76%
01:00 +9°C° 0 mm 1 mps 671 mmHg 76%
02:00 +9°C° 0 mm 1 mps 671 mmHg 76%
03:00 +9°C° 0 mm 1 mps 671 mmHg 76%
04:00 +8°C° 0 mm 1 mps 671 mmHg 77%
05:00 +8°C° 0 mm 1 mps 670 mmHg 78%
06:00 +8°C° 0 mm 1 mps 670 mmHg 81%
07:00 +10°C° 0 mm 1 mps 671 mmHg 73%
08:00 +11°C° 0 mm 1 mps 671 mmHg 65%
09:00 +13°C° 0 mm 1 mps 672 mmHg 56%
10:00 +14°C° 0 mm 1 mps 672 mmHg 52%
11:00 +15°C° 0 mm 2 mps 672 mmHg 48%
12:00 +16°C° 0 mm 2 mps 672 mmHg 44%
13:00 +16°C° 0 mm 2 mps 671 mmHg 44%
14:00 +16°C° 0 mm 2 mps 670 mmHg 45%
15:00 +16°C° 0 mm 2 mps 669 mmHg 46%
16:00 +15°C° 0.1 mm 2 mps 669 mmHg 50%
17:00 +14°C° 0.1 mm 1 mps 668 mmHg 55%
18:00 +13°C° 0.1 mm 1 mps 668 mmHg 60%
19:00 +12°C° 0.3 mm 1 mps 668 mmHg 64%
20:00 +12°C° 0.3 mm 1 mps 668 mmHg 68%
21:00 +11°C° 0.3 mm 1 mps 668 mmHg 72%
22:00 +10°C° 0 mm 1 mps 668 mmHg 75%
23:00 +10°C° 0 mm 1 mps 667 mmHg 77%

Tomorrow, 8 March, Monday

Time Temperature Precipitation Wind Pressure Humidity
00:00 +10°C° 0 mm 1 mps 667 mmHg 80%
01:00 +9°C° 0 mm 1 mps 666 mmHg 82%
02:00 +9°C° 0 mm 1 mps 666 mmHg 84%
03:00 +8°C° 0 mm 1 mps 665 mmHg 86%
04:00 +8°C° 0 mm 1 mps 665 mmHg 86%
05:00 +8°C° 0 mm 1 mps 665 mmHg 86%
06:00 +7°C° 0 mm 1 mps 665 mmHg 85%
07:00 +9°C° 0 mm 1 mps 666 mmHg 76%
08:00 +11°C° 0 mm 1 mps 666 mmHg 67%
09:00 +13°C° 0 mm 1 mps 667 mmHg 58%
10:00 +14°C° 0.1 mm 1 mps 667 mmHg 53%
11:00 +15°C° 0.1 mm 1 mps 667 mmHg 49%
12:00 +16°C° 0.1 mm 2 mps 667 mmHg 44%
13:00 +16°C° 0.6 mm 2 mps 667 mmHg 43%
14:00 +16°C° 0.6 mm 2 mps 666 mmHg 43%
15:00 +16°C° 0.6 mm 2 mps 666 mmHg 42%
16:00 +15°C° 0.4 mm 2 mps 666 mmHg 49%
17:00 +13°C° 0.4 mm 3 mps 666 mmHg 56%
18:00 +12°C° 0.4 mm 3 mps 666 mmHg 63%
19:00 +11°C° 0.5 mm 3 mps 666 mmHg 69%
20:00 +10°C° 0.5 mm 2 mps 667 mmHg 75%
21:00 +10°C° 0.5 mm 1 mps 667 mmHg 81%
22:00 +9°C° 0.8 mm 2 mps 667 mmHg 82%
23:00 +9°C° 0.8 mm 2 mps 667 mmHg 82%

Day after tomorrow, 9 March, Tuesday

Time Temperature Precipitation Wind Pressure Humidity
00:00 +9°C° 0.8 mm 2 mps 667 mmHg 82%
01:00 +9°C° 0.2 mm 2 mps 667 mmHg 82%
02:00 +9°C° 0.2 mm 2 mps 667 mmHg 81%
03:00 +10°C° 0.2 mm 1 mps 666 mmHg 81%
04:00 +8°C° 0.1 mm 2 mps 667 mmHg 83%
05:00 +8°C° 0.1 mm 2 mps 667 mmHg 85%
06:00 +8°C° 0.1 mm 2 mps 667 mmHg 87%
07:00 +9°C° 0.2 mm 2 mps 667 mmHg 82%
08:00 +9°C° 0.2 mm 2 mps 668 mmHg 77%
09:00 +10°C° 0.2 mm 2 mps 668 mmHg 72%
10:00 +11°C° 0.5 mm 3 mps 669 mmHg 67%
11:00 +12°C° 0.5 mm 3 mps 669 mmHg 62%
12:00 +13°C° 0.5 mm 4 mps 669 mmHg 56%
13:00 +13°C° 0.5 mm 4 mps 669 mmHg 55%
14:00 +13°C° 0.5 mm 4 mps 668 mmHg 53%
15:00 +13°C° 0.5 mm 3 mps 668 mmHg 52%
16:00 +12°C° 0.2 mm 3 mps 668 mmHg 59%
17:00 +11°C° 0.2 mm 3 mps 668 mmHg 66%
18:00 +10°C° 0.2 mm 3 mps 668 mmHg 72%
19:00 +9°C° 0.1 mm 3 mps 668 mmHg 77%
20:00 +8°C° 0.1 mm 3 mps 669 mmHg 81%
21:00 +8°C° 0.1 mm 3 mps 669 mmHg 85%
22:00 +7°C° 0 mm 3 mps 669 mmHg 86%
23:00 +7°C° 0 mm 3 mps 669 mmHg 86%

10 March, Wednesday

Time Temperature Precipitation Wind Pressure Humidity
00:00 +7°C° 0 mm 3 mps 669 mmHg 86%
01:00 +5°C° 0 mm 3 mps 669 mmHg 86%
02:00 +5°C° 0 mm 3 mps 669 mmHg 86%
03:00 +5°C° 0 mm 3 mps 669 mmHg 86%
04:00 +5°C° 0 mm 3 mps 669 mmHg 87%
05:00 +4°C° 0 mm 3 mps 670 mmHg 89%
06:00 +4°C° 0 mm 3 mps 670 mmHg 90%
07:00 +5°C° 0 mm 3 mps 671 mmHg 83%
08:00 +5°C° 0 mm 3 mps 671 mmHg 75%
09:00 +6°C° 0 mm 4 mps 672 mmHg 68%
10:00 +7°C° 0 mm 4 mps 672 mmHg 63%
11:00 +8°C° 0 mm 4 mps 672 mmHg 59%
12:00 +10°C° 0 mm 4 mps 673 mmHg 55%
13:00 +10°C° 0 mm 4 mps 672 mmHg 54%
14:00 +9°C° 0 mm 5 mps 672 mmHg 54%
15:00 +9°C° 0 mm 5 mps 672 mmHg 53%
16:00 +8°C° 0 mm 5 mps 672 mmHg 58%
17:00 +7°C° 0 mm 5 mps 672 mmHg 63%
18:00 +6°C° 0 mm 5 mps 673 mmHg 68%
19:00 +6°C° 0 mm 4 mps 673 mmHg 73%
20:00 +5°C° 0 mm 4 mps 674 mmHg 78%
21:00 +4°C° 0 mm 3 mps 674 mmHg 83%
22:00 +4°C° 0 mm 3 mps 674 mmHg 84%
23:00 +4°C° 0 mm 3 mps 674 mmHg 86%

11 March, Thursday

Time Temperature Precipitation Wind Pressure Humidity
00:00 +3°C° 0 mm 3 mps 674 mmHg 87%
01:00 +3°C° 0 mm 3 mps 674 mmHg 88%
02:00 +2°C° 0 mm 3 mps 674 mmHg 90%
03:00 +2°C° 0 mm 3 mps 673 mmHg 91%
04:00 +2°C° 0 mm 3 mps 673 mmHg 90%
05:00 +2°C° 0 mm 3 mps 673 mmHg 90%
06:00 +1°C° 0 mm 3 mps 674 mmHg 89%
07:00 +3°C° 0 mm 3 mps 674 mmHg 79%
08:00 +4°C° 0 mm 3 mps 675 mmHg 69%
09:00 +7°C° 0 mm 3 mps 676 mmHg 58%
10:00 +8°C° 0 mm 3 mps 676 mmHg 52%
11:00 +9°C° 0 mm 3 mps 676 mmHg 45%
12:00 +10°C° 0 mm 3 mps 676 mmHg 39%
13:00 +11°C° 0 mm 3 mps 676 mmHg 37%
14:00 +11°C° 0 mm 3 mps 675 mmHg 35%
15:00 +12°C° 0 mm 3 mps 675 mmHg 33%
16:00 +11°C° 0 mm 3 mps 674 mmHg 37%
17:00 +10°C° 0 mm 3 mps 674 mmHg 40%
18:00 +9°C° 0 mm 2 mps 674 mmHg 44%
19:00 +8°C° 0 mm 2 mps 674 mmHg 48%
20:00 +8°C° 0 mm 1 mps 674 mmHg 52%
21:00 +7°C° 0 mm 1 mps 674 mmHg 57%
22:00 +7°C° 0 mm 1 mps 674 mmHg 59%
23:00 +7°C° 0 mm 1 mps 674 mmHg 60%

12 March, Friday

Time Temperature Precipitation Wind Pressure Humidity
00:00 +6°C° 0 mm 1 mps 674 mmHg 62%
01:00 +6°C° 0 mm 1 mps 673 mmHg 64%
02:00 +5°C° 0 mm 1 mps 672 mmHg 65%
03:00 +5°C° 0 mm 1 mps 672 mmHg 67%
04:00 +4°C° 0 mm 1 mps 672 mmHg 68%
05:00 +4°C° 0 mm 1 mps 672 mmHg 69%
06:00 +4°C° 0 mm 1 mps 672 mmHg 69%
07:00 +6°C° 0 mm 1 mps 672 mmHg 59%
08:00 +7°C° 0 mm 0 mps 673 mmHg 49%
09:00 +9°C° 0 mm 0 mps 674 mmHg 39%
10:00 +12°C° 0 mm 1 mps 674 mmHg 35%
11:00 +13°C° 0 mm 1 mps 674 mmHg 32%
12:00 +14°C° 0 mm 2 mps 674 mmHg 28%
13:00 +14°C° 0 mm 2 mps 673 mmHg 27%
14:00 +15°C° 0 mm 2 mps 673 mmHg 27%
15:00 +14°C° 0 mm 3 mps 672 mmHg 26%
16:00 +14°C° 0 mm 2 mps 672 mmHg 31%
17:00 +12°C° 0 mm 2 mps 671 mmHg 36%
18:00 +10°C° 0 mm 2 mps 671 mmHg 42%
19:00 +10°C° 0 mm 1 mps 671 mmHg 46%
20:00 +10°C° 0 mm 1 mps 671 mmHg 51%
21:00 +9°C° 0 mm 1 mps 672 mmHg 55%
22:00 +8°C° 0 mm 1 mps 671 mmHg 56%
23:00 +8°C° 0 mm 1 mps 671 mmHg 57%
Show more

We Need Your Consent

Meteoprog and our Service Providers may store and access personal data such as cookies, device identifiers or other similar technologies on your device and process such data to personalise content and ads, as well as provide social media features and to analyse the traffic.

  • Store and/or access information on your device

    Cookies, device identifiers or other information can be stored or accessed on your device for the purposes indicated above.

  • Personalised ads and content, ad and content measurement, audience insights, and products development

    Ads and content can be personalised based on a profile. More data can be added to better personalise ads and content. Ad and content performance can be measured. Insights about the audience who saw the ads and content can be derived. Such data can be used to develop or improve user’s experience, systems and software.

By clicking ‘I Agree’ you will allow the use of indicated cookies, device identifiers, web beacons or other similar technologies. Your settings can be changed in the browser on your device.

For certain purposes, legitimate interests may be relied on, rather than consent. You can read more about this in our Privacy and Cookie Policy.